Weather History for PAMC - December, 2011

Change the Weather History Date:

Tuesday, December 27, 2011

  Actual Average Record
Temperature  
Mean Temperature -12 °F -6 °F  
Max Temperature -5 °F - 40 °F (1985)
Min Temperature -18 °F -14 °F -67 °F (1961)
Degree Days  
Heating Degree Days 77 71  
Month to date heating degree days 1495 1830  
Since 1 July heating degree days 5781 5962  
Cooling Degree Days 0    
Month to date cooling degree days 0  
Year to date cooling degree days 6 16  
Moisture  
Dew Point -13 °F    
Average Humidity 0    
Maximum Humidity 0    
Minimum Humidity 0    
Precipitation  
Precipitation 0.05 in 0.04 in 0.82 in (1990)
Month to date precipitation 3.37 1.12  
Year to date precipitation 19.14 17.83  
Snow  
Snow 0.70 in 0.70 in 9.40 in (1990)
Month to date snowfall 28.2 17.7  
Since 1 July snowfall 74.2 48.7  
Snow Depth 38.00 in    
Sea Level Pressure  
Sea Level Pressure 29.32 in    
Wind  
Wind Speed 1 mph (WNW)    
Max Wind Speed 7 mph    
Max Gust Speed 9 mph    
Visibility 4 miles    
Events Snow    
T = Trace of Precipitation, MM = Missing Value Source: NWS Daily Summary

Daily Weather History Graph

Daily Weather History Graph

Search for Another Location

Airport or City:

Trip Planner

Search our weather history database for the weather conditions in past years. The results will help you decide how hot, cold, wet, or windy it might be!

Date:

Astronomy

Dec. 27, 2011 Rise Set
Actual Time 10:59 AM AKST 3:47 PM AKST
Civil Twilight 9:49 AM AKST 4:58 PM AKST
Nautical Twilight 8:44 AM AKST 6:02 PM AKST
Astronomical Twilight 7:47 AM AKST 6:59 PM AKST
Moon 11:43 AM AKST (12/27) 8:58 PM AKST (12/27)
Length of Visible Light 7h 08m
Length of Day
4h 48m
Waxing Crescent, 12% of the Moon is Illuminated
Dec 27
Waxing Crescent
Dec 31
First Quarter
Jan 8
Full
Jan 16
Last Quarter
Jan 22
New

Hourly Weather History & Observations

Time (AKST) Temp. Windchill Dew Point Humidity Pressure Visibility Wind Dir Wind Speed Gust Speed Precip Events Conditions
12:53 AM -13.0 °F - -18.0 °F 78% 29.33 in 10.0 mi Calm Calm - N/A   Mostly Cloudy
1:53 AM -11.0 °F -24.6 °F -17.0 °F 75% 29.31 in 10.0 mi NW 5.8 mph - N/A   Overcast
3:53 AM -7.1 °F -15.9 °F -11.9 °F 79% 29.28 in 10.0 mi NW 3.5 mph - 0.00 in   Overcast
4:53 AM -9.0 °F -18.2 °F -14.1 °F 79% 29.28 in 10.0 mi NW 3.5 mph - N/A   Clear
5:53 AM -16.1 °F - -22.0 °F 74% 29.28 in 10.0 mi Calm Calm - N/A   Scattered Clouds
6:53 AM -13.0 °F -22.7 °F -18.9 °F 75% 29.28 in 10.0 mi West 3.5 mph - N/A   Overcast
7:53 AM -11.0 °F - -17.0 °F 75% 29.29 in 5.0 mi Calm Calm - 0.00 in Snow Light Snow
8:21 AM -9.4 °F -18.6 °F -16.6 °F 71% 29.26 in 2.0 mi West 3.5 mph - 0.00 in Snow Light Snow
8:29 AM -9.4 °F - -14.8 °F 77% 29.26 in 1.8 mi Calm Calm - 0.00 in Snow Light Snow
8:53 AM -9.0 °F - -15.0 °F 75% 29.30 in 1.8 mi Calm Calm - 0.00 in Snow Light Snow
9:05 AM -9.4 °F - -14.8 °F 77% 29.26 in 2.5 mi Calm Calm - 0.01 in Snow Light Snow
9:15 AM -9.4 °F - -14.8 °F 77% 29.26 in 4.0 mi Calm Calm - 0.01 in Snow Light Snow
9:53 AM -8.0 °F - -13.0 °F 79% 29.31 in 1.8 mi Calm Calm - 0.01 in Snow Light Snow
10:03 AM -7.6 °F - -13.0 °F 77% 29.27 in 2.0 mi Calm Calm - 0.00 in Snow Light Snow
10:31 AM -7.6 °F -16.5 °F -11.2 °F 84% 29.28 in 3.0 mi WNW 3.5 mph - 0.00 in Snow Light Snow
10:53 AM -7.1 °F - -11.0 °F 83% 29.32 in 2.5 mi Calm Calm - 0.01 in Snow Light Snow
11:17 AM -5.8 °F - -11.2 °F 77% 29.28 in 3.0 mi Calm Calm - 0.00 in Snow Light Snow
11:26 AM -5.8 °F - -11.2 °F 77% 29.28 in 2.0 mi Calm Calm - 0.00 in Snow Light Snow
11:53 AM -6.0 °F - -9.9 °F 83% 29.32 in 2.5 mi Calm Calm - 0.00 in Snow Light Snow
12:04 PM -5.8 °F -14.5 °F -9.4 °F 84% 29.29 in 4.0 mi WNW 3.5 mph - 0.00 in Snow Light Snow
12:24 PM -5.8 °F -14.5 °F -9.4 °F 84% 29.30 in 2.5 mi WNW 3.5 mph - 0.00 in Snow Light Snow
12:34 PM -5.8 °F - -9.4 °F 84% 29.30 in 4.0 mi Calm Calm - 0.00 in Snow Light Snow
12:53 PM -5.1 °F - -9.9 °F 80% 29.34 in 2.0 mi Calm Calm - 0.00 in Snow Light Snow
1:09 PM -5.8 °F - -9.4 °F 84% 29.31 in 2.0 mi Calm Calm - 0.00 in Snow Light Snow
1:22 PM -5.8 °F - -9.4 °F 84% 29.30 in 1.8 mi Calm Calm - 0.00 in Snow Light Snow
1:29 PM -5.8 °F - -9.4 °F 84% 29.30 in 3.0 mi Calm Calm - 0.00 in Snow Light Snow
1:44 PM -5.8 °F - -9.4 °F 84% 29.31 in 2.5 mi Calm Calm - 0.00 in Snow Light Snow
1:53 PM -5.1 °F - -9.0 °F 83% 29.35 in 2.5 mi Calm Calm - 0.00 in Snow Light Snow
2:01 PM -5.8 °F - -9.4 °F 84% 29.31 in 6.0 mi Calm Calm - 0.01 in Snow Light Snow
2:28 PM -5.8 °F - -9.4 °F 84% 29.31 in 2.5 mi Calm Calm - 0.01 in Snow Light Snow
2:53 PM -7.1 °F - -11.0 °F 83% 29.35 in 4.0 mi Calm Calm - 0.01 in Snow Light Snow
3:53 PM -8.0 °F - -13.0 °F 79% 29.36 in 8.0 mi Calm Calm - 0.00 in   Overcast
4:53 PM -7.1 °F - -11.9 °F 79% 29.37 in 3.0 mi Calm Calm - 0.00 in Snow Light Snow
5:06 PM -5.8 °F - -11.2 °F 77% 29.34 in 2.5 mi Calm Calm - 0.00 in Snow Light Snow
5:19 PM -5.8 °F - -11.2 °F 77% 29.34 in 4.0 mi Calm Calm - 0.01 in Snow Light Snow
5:53 PM -6.0 °F - -11.0 °F 79% 29.38 in 3.0 mi Calm Calm - 0.01 in Snow Light Snow
6:03 PM -5.8 °F - -11.2 °F 77% 29.34 in 2.5 mi Calm Calm - 0.00 in Snow Light Snow
6:51 PM -5.8 °F - -11.2 °F 77% 29.34 in 2.5 mi Calm Calm - 0.01 in Snow Light Snow
6:53 PM -6.0 °F - -11.0 °F 79% 29.39 in 2.5 mi Calm Calm - 0.01 in Snow Light Snow
7:11 PM -5.8 °F - -11.2 °F 77% 29.35 in 2.0 mi Calm Calm - 0.00 in Snow Light Snow
7:28 PM -5.8 °F - -11.2 °F 77% 29.35 in 3.0 mi Calm Calm - 0.00 in Snow Light Snow
7:53 PM -8.0 °F - -13.0 °F 79% 29.39 in 4.0 mi Calm Calm - 0.00 in Snow Light Snow
8:53 PM -9.0 °F - -14.1 °F 79% 29.39 in 5.0 mi Calm Calm - 0.00 in   Haze
9:21 PM -9.4 °F - -14.8 °F 77% 29.35 in 3.0 mi Calm Calm - N/A   Haze
9:53 PM -11.9 °F - -17.0 °F 78% 29.39 in 8.0 mi Calm Calm - N/A   Mostly Cloudy
10:01 PM -11.2 °F - -16.6 °F 77% 29.35 in 10.0 mi Calm Calm - N/A   Scattered Clouds
10:53 PM -16.1 °F - -20.9 °F 79% 29.40 in 10.0 mi Calm Calm - N/A   Overcast
11:53 PM -17.0 °F - -22.0 °F 78% 29.40 in 3.0 mi Calm Calm - 0.00 in Snow Light Snow